Regional Weather Roundup
Issued by NWS Memphis, TN

Home | Current Version | Previous Version | Text Only | Print | Product List | Glossary On
Versions: 1 2 3 4 5 6 7 8 9 10 11 12 13 14 15 16 17 18 19 20 21 22 23 24 25 26 27 28 29 30 31 32 33 34 35 36 37 38 39 40 41 42 43 44 45 46 47 48 49 50
000
ASUS44 KMEG 221610
RWRMEG
MEMPHIS CWA HOURLY WEATHER ROUNDUP
NATIONAL WEATHER SERVICE MEMPHIS TN
1100 AM CDT SUN OCT 22 2017

...WEST TENNESSEE...

CITY           SKY/WX    TMP DP  RH WIND       PRES   REMARKS
MEMPHIS INTL   CLOUDY    69  67  93 S6        30.01S
NWS MEMPHIS      N/A     69 N/A N/A MISG        N/A
JACKSON        CLOUDY    73  63  70 S12G22    30.05S
COVINGTON      CLOUDY    72  63  73 S6        30.01F
SOMERVILLE     CLOUDY    75  63  64 SE14G21   30.00F
BOLIVAR        CLOUDY    72  63  73 SE14G22   30.04F
LEXINGTON      PTSUNNY   73  61  64 SE9G18    30.08R
SELMER         PTSUNNY   73  63  68 S15       30.07S
SAVANNAH       PTSUNNY   75  64  69 S8        30.07F
DYERSBURG        N/A     72  63  73 S8        30.02S
UNION CITY     MOSUNNY   77  63  61 S18G25    30.01S
HUNTINGDON     MOSUNNY   75  61  60 S13G28    30.05R


...EASTERN ARKANSAS...

CITY           SKY/WX    TMP DP  RH WIND       PRES   REMARKS
JONESBORO      CLOUDY    70  63  78 E8        29.98F
WEST MEMPHIS   CLOUDY    66  65  96 E7        29.99F
BATESVILLE     CLOUDY    66  61  84 SW9       30.02F
NEWPORT        CLOUDY    68  63  83 SW10      30.02R
WALNUT RIDGE     N/A    N/A N/A N/A MISG        N/A
BLYTHEVILLE    CLOUDY    67  66  97 S6        30.01S
SEARCY         CLOUDY    64  63  96 S6        30.03F
STUTTGART      CLOUDY    64  60  87 W6        30.03F
PINE BLUFF     CLOUDY    63  59  87 VRB3      30.04F
MONTICELLO     CLOUDY    63  59  87 SW5       30.07F


...NORTH MISSISSIPPI...

CITY           SKY/WX    TMP DP  RH WIND       PRES   REMARKS
TUPELO         CLOUDY    73  63  70 SE14G21   30.07S
BATESVILLE     RAIN      70  64  79 S5        30.03R
OLIVE BRANCH   LGT RAIN N/A N/A N/A S9        30.01R
TUNICA           N/A    N/A N/A N/A CALM      30.02S
CLARKSDALE       N/A     66  66 100 N3        30.01F
CORINTH        CLOUDY    75  63  64 S14G23    30.07S
GREENWOOD      LGT RAIN  68  66  93 CALM      30.05R FOG
COLUMBUS       CLOUDY    73  68  83 SE12      30.06S
STARKVILLE     CLOUDY    70  64  83 S6        30.08R
GOLDEN TRIANGL CLOUDY    72  66  81 SE10      30.07F


...SOUTHEAST MISSOURI...

CITY           SKY/WX    TMP DP  RH WIND       PRES   REMARKS
KENNETT        CLOUDY    66  63  88 S6        29.99R
MALDEN         MOSUNNY   66  61  82 S12       30.00S
WEST PLAINS    CLOUDY    61  58  90 W5        30.04S
POPLAR BLUFF   CLOUDY    70  62  76 S7        29.97R
CAPE GIRARDEAU PTSUNNY   72  62  71 S25G32    29.97S


...NORTHWEST ALABAMA...

CITY           SKY/WX    TMP DP  RH WIND       PRES   REMARKS
MUSCLE SHOALS  CLOUDY    76  63  64 S16G25    30.12R


...MIDDLE TENNESSEE...

CITY           SKY/WX    TMP DP  RH WIND       PRES   REMARKS
NASHVILLE      PTSUNNY   76  59  55 S21G28    30.13F
CLARKSVILLE    CLOUDY    75  59  57 SE14G22   30.08F
COLUMBIA       MOSUNNY   73  61  64 SE17G25   30.10S


...WESTERN KENTUCKY...

CITY           SKY/WX    TMP DP  RH WIND       PRES   REMARKS
PADUCAH        PTSUNNY   74  61  63 S13G24    30.01F
FORT CAMPBELL  CLOUDY    73  59  60 S12G18    30.07F


...CENTRAL ARKANSAS...

CITY           SKY/WX    TMP DP  RH WIND       PRES   REMARKS
LITTLE ROCK    CLOUDY    62  61  96 SW6       30.04F


SKY/WX REPORTED AS FAIR MEANS FEW OR NO CLOUDS BELOW
12 THOUSAND FEET.




USA.gov is the U.S. government's official web portal to all federal, state and local government web resources and services.